{"data":{"norad_id":56354,"intl_designator":"2023-058AP","name":"STARLINK-5877","alt_names":[],"object_type":"PAYLOAD","status":"ACTIVE","operator":null,"country":"US","launch_date":"2023-04-27","launch_site_code":"AFWTR","launch_vehicle":null,"mission":null,"orbit_class":"UNKNOWN","rcs_meters":null,"size_class":null,"mass_kg":null,"dimensions":null,"purposes":["comms"],"wikipedia_slug":null,"has_3d_model":false,"image_url":null,"decayed_at":null,"tle_current":{"epoch":"2026-09-20T12:50:49.087104Z","epoch_age_seconds":106083,"freshness":"FRESH","line1":"1 56354U 23058AP  26263.53529036  .00001289  00000+0  42239-4 0  9996","line2":"2 56354  97.2838 260.3356 0001692  92.7067 267.4370 15.33447433187648","mean_motion":15.33447433,"eccentricity":0.0001692,"inclination_deg":97.2838,"raan_deg":260.3356,"arg_perigee_deg":92.7067,"mean_anomaly_deg":267.437,"bstar":4.2239e-5,"rev_number":18764,"period_min":93.906055663272,"perigee_km":464.37798613076,"apogee_km":466.69388505217,"semimajor_km":6843.6729355915,"source":"CELESTRAK","updated_at":"2026-09-21T09:00:33.428348Z"}}}